KLM42 EHAM-EGCC

Flight info

Callsign KLM42
Flight time N/A
Altitude 32000
Route BERGI L60 OTBED
Aircraft B739/M-SDE2E3FGHIRWXY/LB1

Departure

Time 2026-05-05 18:58
Airport Amsterdam Airport Schiphol (EHAM)

Arrival

Time N/A
Airport Manchester Airport (EGCC)
Time Latitude Longitude Altitude Speed Heading
2026-05-05 18:32 52.30337 4.76214 13 ft 0 kts 58°
2026-05-05 18:45 52.30330 4.76196 13 ft 2 kts 58°
2026-05-05 18:45 52.30321 4.76173 13 ft 2 kts 58°
2026-05-05 18:45 52.30314 4.76149 13 ft 2 kts 85°
2026-05-05 18:45 52.30318 4.76131 13 ft 1 kts 152°
2026-05-05 18:46 52.30324 4.76127 13 ft 0 kts 161°
2026-05-05 18:49 52.30312 4.76133 13 ft 7 kts 161°
2026-05-05 18:49 52.30249 4.76178 13 ft 10 kts 149°
2026-05-05 18:49 52.30175 4.76219 13 ft 13 kts 213°
2026-05-05 18:50 52.30130 4.76094 13 ft 13 kts 236°
2026-05-05 18:50 52.30081 4.75976 13 ft 12 kts 236°
2026-05-05 18:50 52.30039 4.75859 13 ft 12 kts 240°
2026-05-05 18:50 52.29996 4.75741 13 ft 15 kts 237°
2026-05-05 18:51 52.29926 4.75561 13 ft 19 kts 238°
2026-05-05 18:51 52.29857 4.75382 13 ft 18 kts 237°
2026-05-05 18:51 52.29844 4.75195 13 ft 17 kts 298°
2026-05-05 18:51 52.29927 4.75037 13 ft 19 kts 311°
2026-05-05 18:52 52.30013 4.74877 13 ft 18 kts 311°
2026-05-05 18:52 52.30094 4.74724 13 ft 17 kts 311°
2026-05-05 18:52 52.30171 4.74584 13 ft 16 kts 311°
2026-05-05 18:52 52.30245 4.74449 13 ft 15 kts 312°
2026-05-05 18:53 52.30308 4.74315 13 ft 14 kts 290°
2026-05-05 18:53 52.30342 4.74184 13 ft 12 kts 290°
2026-05-05 18:53 52.30338 4.74120 13 ft 0 kts 250°
2026-05-05 18:54 52.30321 4.74055 13 ft 10 kts 236°
2026-05-05 18:54 52.30310 4.74034 13 ft 0 kts 222°
2026-05-05 18:54 52.30295 4.74011 13 ft 11 kts 221°
2026-05-05 18:55 52.30278 4.73989 13 ft 0 kts 217°
2026-05-05 18:55 52.30262 4.73970 13 ft 10 kts 216°
2026-05-05 18:56 52.30225 4.73924 13 ft 0 kts 219°
2026-05-05 18:56 52.30224 4.73923 13 ft 1 kts 219°
2026-05-05 18:56 52.30189 4.73868 13 ft 9 kts 238°
2026-05-05 18:57 52.30190 4.73768 13 ft 9 kts 297°
2026-05-05 18:57 52.30230 4.73738 13 ft 0 kts
2026-05-05 18:57 52.30236 4.73739 13 ft 6 kts
2026-05-05 18:58 52.30383 4.73753 13 ft 51 kts
2026-05-05 18:58 52.31010 4.73807 13 ft 127 kts
2026-05-05 18:58 52.32120 4.73925 39 ft 187 kts
2026-05-05 18:58 52.33464 4.74040 831 ft 199 kts 359°
2026-05-05 18:59 52.34864 4.73700 1920 ft 204 kts 348°
2026-05-05 18:59 52.36086 4.72990 3427 ft 164 kts 338°
2026-05-05 18:59 52.37128 4.72370 4314 ft 161 kts 347°
2026-05-05 18:59 52.38263 4.71836 4681 ft 181 kts 344°
2026-05-05 19:00 52.39549 4.71209 4998 ft 205 kts 343°
2026-05-05 19:00 52.41007 4.70519 5335 ft 231 kts 343°
2026-05-05 19:00 52.42627 4.69765 5822 ft 251 kts 343°
2026-05-05 19:00 52.44355 4.68975 6503 ft 264 kts 343°
2026-05-05 19:01 52.46147 4.68171 7333 ft 270 kts 343°
2026-05-05 19:01 52.47972 4.67346 8204 ft 274 kts 343°
2026-05-05 19:01 52.49825 4.66512 9046 ft 278 kts 343°
2026-05-05 19:01 52.51704 4.65667 9881 ft 282 kts 343°
2026-05-05 19:02 52.53545 4.64584 10643 ft 287 kts 334°
2026-05-05 19:02 52.55257 4.62793 11207 ft 299 kts 315°
2026-05-05 19:02 52.56523 4.59971 11601 ft 317 kts 299°
2026-05-05 19:02 52.57224 4.57813 11837 ft 329 kts 297°
2026-05-05 19:03 52.58322 4.54373 12152 ft 349 kts 297°
2026-05-05 19:03 52.59475 4.50773 12614 ft 361 kts 297°
2026-05-05 19:03 52.60612 4.47017 12919 ft 368 kts 294°
2026-05-05 19:03 52.61937 4.41894 12965 ft 367 kts 292°
2026-05-05 19:04 52.62602 4.39274 12963 ft 367 kts 292°
2026-05-05 19:04 52.63585 4.35398 12964 ft 366 kts 292°
2026-05-05 19:04 52.64566 4.31532 12967 ft 366 kts 292°
2026-05-05 19:04 52.65534 4.27716 12969 ft 365 kts 292°
2026-05-05 19:05 52.66515 4.23852 12971 ft 365 kts 292°
2026-05-05 19:05 52.67495 4.19992 12973 ft 365 kts 292°
2026-05-05 19:05 52.68474 4.16138 13055 ft 364 kts 292°
2026-05-05 19:05 52.69454 4.12291 13406 ft 365 kts 292°
2026-05-05 19:06 52.70444 4.08413 13806 ft 367 kts 292°
2026-05-05 19:06 52.71443 4.04521 14209 ft 368 kts 292°
2026-05-05 19:06 52.72398 4.00604 14664 ft 372 kts 288°
2026-05-05 19:06 52.73137 3.96473 15418 ft 373 kts 284°
2026-05-05 19:07 52.73807 3.92325 16141 ft 375 kts 284°
2026-05-05 19:07 52.74454 3.88214 16910 ft 375 kts 283°
2026-05-05 19:07 52.75108 3.84022 17510 ft 379 kts 283°
2026-05-05 19:07 52.75768 3.79782 18099 ft 383 kts 283°
2026-05-05 19:08 52.76432 3.75501 18694 ft 386 kts 283°
2026-05-05 19:08 52.77099 3.71185 19270 ft 389 kts 283°
2026-05-05 19:08 52.77769 3.66833 19826 ft 392 kts 283°
2026-05-05 19:08 52.78442 3.62456 20360 ft 395 kts 283°
2026-05-05 19:09 52.79119 3.58036 20876 ft 398 kts 283°
2026-05-05 19:09 52.79799 3.53589 21374 ft 401 kts 283°
2026-05-05 19:09 52.80478 3.49127 21992 ft 399 kts 283°
2026-05-05 19:09 52.81155 3.44674 22490 ft 401 kts 283°